DW6150 Weather Reports


time (UTC)temp
C
wind
direction
speed
KPH
gust
KPH
rain 1hr
cm
rain 24hr
cm
rain mn
cm
humidity
%
barometer
mb
20260507114534 8 302 0.0 0.0 0.00 0.69 0.00 79 1011.8
20260507113050 7 302 0.0 0.0 0.00 0.69 0.00 82 1011.8
20260507111522 5 298 0.0 0.0 0.00 0.69 0.00 80 1011.8
20260507110052 4 298 0.0 0.0 0.00 0.69 0.00 81 1011.7
20260507104514 3 298 0.0 0.0 0.00 0.81 0.00 75 1011.5
20260507103045 2 298 0.0 0.0 0.00 0.81 0.00 78 1011.3
20260507101508 2 298 0.0 0.0 0.00 0.81 0.00 80 1011.0
20260507100038 2 298 0.0 1.6 0.00 0.81 0.00 81 1011.1
20260507094504 3 221 1.6 3.2 0.00 0.84 0.00 82 1011.1
20260507093028 3 6 0.0 3.2 0.00 0.84 0.00 82 1010.9
20260507091554 3 13 1.6 6.4 0.00 0.84 0.00 82 1010.9
20260507090026 3 342 3.2 6.4 0.00 0.84 0.00 81 1011.0
20260507084558 4 28 1.6 8.0 0.00 0.84 0.00 81 1011.0
20260507083032 4 18 1.6 6.4 0.00 0.84 0.00 82 1010.9
20260507081552 4 12 0.0 8.0 0.00 0.84 0.00 82 1010.9
20260507080016 5 48 0.0 4.8 0.00 0.86 0.00 82 1011.0
20260507074549 5 352 1.6 6.4 0.00 0.86 0.00 82 1010.8
20260507073012 5 10 0.0 3.2 0.00 0.86 0.00 82 1010.8
20260507071538 5 55 0.0 3.2 0.00 0.86 0.00 82 1010.6
20260507070107 5 352 1.6 4.8 0.00 0.86 0.00 81 1010.5
20260507070008 5 41 3.2 4.8 0.00 0.86 0.00 81 1010.5
20260507064543 5 55 3.2 6.4 0.00 0.86 0.00 81 1010.7
20260507063054 6 319 0.0 4.8 0.00 0.86 0.00 82 1010.7
20260507061521 6 276 4.8 11.3 0.00 0.86 0.00 82 1010.6
20260507060053 6 298 1.6 11.3 0.00 0.86 0.00 82 1010.8
20260507054511 6 282 3.2 6.4 0.00 0.86 0.00 82 1010.9
20260507053040 6 275 3.2 8.0 0.00 0.86 0.00 82 1010.7
20260507051508 6 278 3.2 9.7 0.00 0.86 0.00 82 1010.8
20260507050036 6 309 4.8 11.3 0.00 0.86 0.00 82 1010.9
20260507044622 6 256 4.8 11.3 0.00 0.86 0.00 82 1010.6
20260507043028 6 314 4.8 16.1 0.00 0.86 0.00 82 1010.6
20260507041550 6 316 4.8 8.0 0.00 0.86 0.00 78 1010.9
20260507040014 6 316 3.2 8.0 0.00 0.86 0.00 59 1010.4
20260507034543 6 290 1.6 6.4 0.00 0.86 0.86 30 1010.5
20260507033010 7 143 0.0 3.2 0.00 0.86 0.86 11 1010.5
20260507031555 7 250 0.0 1.6 0.00 0.86 0.86 10 1010.5
20260507030005 7 156 0.0 0.0 0.00 0.86 0.86 12 1010.2
20260507024539 7 176 0.0 3.2 0.00 0.86 0.86 13 1010.3
20260507023058 7 135 0.0 0.0 0.00 0.86 0.86 15 1009.9
20260507023001 7 155 0.0 0.0 0.00 0.86 0.86 15 1010.0
20260507021530 7 155 0.0 1.6 0.00 0.86 0.86 15 1010.3
20260507020100 7 335 0.0 0.0 0.00 0.86 0.86 19 1010.5
20260507014539 7 335 0.0 1.6 0.00 0.86 0.86 22 1010.8
20260507013059 7 22 0.0 4.8 0.00 0.86 0.86 20 1010.3
20260507011533 7 297 1.6 3.2 0.00 0.86 0.86 18 1010.8
20260507010051 8 274 1.6 4.8 0.03 0.86 0.86 17 1010.4
20260507004518 8 336 0.0 3.2 0.03 0.86 0.86 22 1010.1
20260507003046 8 51 0.0 6.4 0.03 0.86 0.86 27 1009.9
20260507001514 8 25 6.4 11.3 0.00 0.84 0.84 30 1009.7
20260507000037 8 32 0.0 9.7 0.00 0.84 0.84 30 1009.4
20260506234507 8 40 3.2 8.0 0.00 0.84 0.84 31 1009.0
20260506233046 8 360 0.0 9.7 0.00 0.84 0.84 34 1008.8
20260506231503 8 340 8.0 12.9 0.00 0.84 0.84 37 1008.6
20260506230024 8 334 3.2 16.1 0.00 0.84 0.84 39 1008.5
20260506224554 8 309 4.8 14.5 0.00 0.84 0.84 40 1008.4
20260506223021 8 45 3.2 11.3 0.00 0.84 0.84 35 1008.2
20260506221546 8 40 1.6 14.5 0.00 0.84 0.84 28 1008.2
20260506220013 8 16 6.4 11.3 0.00 0.84 0.84 21 1008.0
20260506214540 8 37 3.2 9.7 0.00 0.84 0.84 19 1007.7
20260506213106 8 21 6.4 14.5 0.00 0.84 0.84 21 1007.4
20260506213002 8 23 11.3 14.5 0.00 0.84 0.84 21 1007.4
20260506211531 8 46 6.4 20.9 0.00 0.84 0.84 26 1007.2
20260506210059 8 59 9.7 17.7 0.00 0.84 0.84 34 1007.1
20260506210000 8 75 9.7 17.7 0.00 0.84 0.84 35 1007.1
20260506204535 9 15 8.0 14.5 0.00 0.84 0.84 37 1007.0
20260506203052 9 30 4.8 12.9 0.00 0.84 0.84 35 1006.9
20260506201521 9 347 8.0 12.9 0.00 0.84 0.84 35 1006.6
20260506200050 9 359 4.8 12.9 0.00 0.84 0.84 30 1006.1
20260506194521 9 66 4.8 17.7 0.00 0.84 0.84 31 1006.1
20260506193045 10 27 9.7 14.5 0.00 0.84 0.84 39 1005.8
20260506191507 10 33 8.0 17.7 0.00 0.84 0.84 48 1005.7
20260506190038 12 347 9.7 17.7 0.00 0.84 0.84 51 1005.2
20260506184555 13 291 3.2 14.5 0.00 0.84 0.84 33 1005.1
20260506183030 14 298 6.4 14.5 0.00 0.84 0.84 23 1004.9
20260506181557 14 307 0.0 0.0 0.00 0.84 0.84 22 1004.9
20260506180030 14 252 0.0 0.0 0.00 0.84 0.84 14 1004.7
20260506174549 14 271 0.0 0.0 0.00 0.84 0.84 11 1004.6
20260506173031 14 335 0.0 0.0 0.00 0.84 0.84 16 1004.6
20260506171547 14 269 0.0 0.0 0.00 0.84 0.84 6 1004.5
20260506170013 13 229 0.0 0.0 0.00 0.84 0.84 3 1004.6
20260506164544 13 121 0.0 0.0 0.00 0.84 0.84 1 1004.6
20260506163011 13 243 0.0 0.0 0.00 0.84 0.84 1 1004.7
20260506161535 13 181 0.0 0.0 0.00 0.84 0.84 1 1004.8
20260506160114 13 212 0.0 0.0 0.03 0.84 0.84 1 1004.8
20260506160004 13 212 0.0 0.0 0.03 0.84 0.84 1 1004.8
20260506154532 13 210 0.0 4.8 0.03 0.84 0.84 1 1004.8
20260506153058 13 148 0.0 3.2 0.05 0.84 0.84 1 1004.6
20260506151520 12 154 0.0 1.6 0.05 0.84 0.84 1 1004.6
20260506150048 12 222 0.0 4.8 0.05 0.81 0.81 2 1004.5
20260506144518 12 217 0.0 4.8 0.08 0.81 0.81 1 1004.5
20260506143053 12 170 1.6 6.4 0.08 0.79 0.79 3 1004.8
20260506141523 12 152 0.0 6.4 0.10 0.79 0.79 5 1004.2
20260506140051 12 255 0.0 9.7 0.08 0.76 0.76 8 1004.2
20260506134513 12 298 1.6 6.4 0.08 0.71 0.71 7 1004.3
20260506133041 12 222 1.6 6.4 0.13 0.71 0.71 6 1004.4
20260506131506 12 307 0.0 4.8 0.20 0.69 0.69 3 1004.4
20260506130040 12 307 0.0 4.8 0.28 0.69 0.69 1 1004.6
20260506124601 12 133 0.0 3.2 0.30 0.66 0.66 3 1004.5
20260506123035 12 255 0.0 8.0 0.28 0.58 0.58 7 1005.3
20260506121602 12 195 0.0 0.0 0.25 0.51 0.51 11 1004.7
20260506121502 12 285 0.0 0.0 0.25 0.48 0.48 11 1004.8
20260506120021 12 293 0.0 0.0 0.23 0.41 0.41 15 1005.1